Rexburg, ID

12:41 PM MDT on August 23, 2017 (GMT -0600)
Rexburg-Madison County

Weather History for KRXE - May, 2013

Change the Weather History Date:

Tuesday, May 21, 2013

  Actual Average Record
Temperature  
Mean Temperature 55 °F 54 °F  
Max Temperature 70 °F 68 °F 85 °F (2012)
Min Temperature 39 °F 41 °F 28 °F (2001)
Degree Days  
Heating Degree Days 10 11  
Month to date heating degree days 220 294  
Since 1 July heating degree days 7564 7859  
Cooling Degree Days 0 0  
Month to date cooling degree days 2 0  
Year to date cooling degree days 2 0  
Growing Degree Days 4 (Base 50)    
Moisture  
Dew Point 38 °F    
Average Humidity 59    
Maximum Humidity 92    
Minimum Humidity 26    
Precipitation  
Precipitation 0.00 in 0.06 in 0.48 in (1981)
Month to date precipitation 0.72 1.14  
Year to date precipitation 3.73 5.25  
Sea Level Pressure  
Sea Level Pressure 29.88 in    
Wind  
Wind Speed 6 mph (SE)    
Max Wind Speed 14 mph    
Max Gust Speed 20 mph    
Visibility 10 miles    
Events      
T = Trace of Precipitation, MM = Missing Value Source: NWS Daily Summary

Daily Weather History Graph

Daily Weather History Graph

Search for Another Location

Airport or City:

Trip Planner

Search our weather history database for the weather conditions in past years. The results will help you decide how hot, cold, wet, or windy it might be!

Date:

Astronomy

May. 21, 2013 Rise Set
Actual Time 5:55 AM MDT 8:52 PM MDT
Civil Twilight 5:21 AM MDT 9:26 PM MDT
Nautical Twilight 4:38 AM MDT 10:10 PM MDT
Astronomical Twilight 3:47 AM MDT 11:01 PM MDT
Moon 5:04 PM MDT (5/21) 3:33 AM MDT (5/21)
Length of Visible Light 16h 05m
Length of Day
14h 57m
Waxing Gibbous, 84% of the Moon is Illuminated
May 21
Waxing Gibbous
May 24
Full
May 31
Last Quarter
Jun 8
New
Jun 16
First Quarter

Hourly Weather History & Observations

Time (MDT) Temp. Windchill Dew Point Humidity Pressure Visibility Wind Dir Wind Speed Gust Speed Precip Events Conditions
12:53 AM 46.9 °F - 42.1 °F 83% 30.05 in 10.0 mi NE 4.6 mph - N/A   Clear
1:53 AM 44.1 °F 41.5 °F 41.0 °F 89% 30.05 in 10.0 mi NNE 4.6 mph - N/A   Clear
2:53 AM 42.1 °F 40.2 °F 39.0 °F 89% 30.04 in 10.0 mi NE 3.5 mph - N/A   Clear
3:53 AM 41.0 °F 39.0 °F 37.9 °F 89% 30.04 in 10.0 mi NE 3.5 mph - N/A   Clear
4:53 AM 39.9 °F 35.8 °F 37.0 °F 89% 30.02 in 10.0 mi ENE 5.8 mph - N/A   Clear
5:53 AM 39.0 °F 35.7 °F 37.0 °F 93% 30.02 in 10.0 mi NE 4.6 mph - N/A   Clear
6:53 AM 39.9 °F 37.8 °F 37.0 °F 89% 30.01 in 10.0 mi NE 3.5 mph - N/A   Clear
7:53 AM 43.0 °F 40.3 °F 37.9 °F 82% 30.01 in 10.0 mi NNE 4.6 mph - N/A   Mostly Cloudy
8:53 AM 48.9 °F - 41.0 °F 74% 29.99 in 10.0 mi NE 3.5 mph - N/A   Clear
9:53 AM 55.0 °F - 42.1 °F 62% 29.97 in 10.0 mi Calm Calm - N/A   Clear
10:53 AM 60.1 °F - 41.0 °F 49% 29.94 in 10.0 mi South 4.6 mph - N/A   Clear
11:53 AM 64.0 °F - 39.0 °F 40% 29.92 in 10.0 mi Variable 3.5 mph - N/A   Clear
12:53 PM 64.0 °F - 41.0 °F 43% 29.89 in 10.0 mi SW 6.9 mph - N/A   Partly Cloudy
1:53 PM 66.9 °F - 34.0 °F 30% 29.86 in 10.0 mi SW 8.1 mph - N/A   Partly Cloudy
2:53 PM 69.1 °F - 34.0 °F 27% 29.83 in 10.0 mi South 10.4 mph - N/A   Partly Cloudy
3:53 PM 70.0 °F - 33.1 °F 26% 29.80 in 10.0 mi SW 11.5 mph - N/A   Partly Cloudy
4:53 PM 68.0 °F - 35.1 °F 30% 29.78 in 10.0 mi SSE 10.4 mph 19.6 mph N/A   Partly Cloudy
5:53 PM 69.1 °F - 36.0 °F 30% 29.76 in 10.0 mi South 8.1 mph - N/A   Mostly Cloudy
6:53 PM 66.9 °F - 35.1 °F 31% 29.73 in 10.0 mi SSW 13.8 mph - N/A   Mostly Cloudy
7:53 PM 64.0 °F - 37.9 °F 38% 29.73 in 10.0 mi South 8.1 mph - N/A   Partly Cloudy
8:53 PM 63.0 °F - 39.0 °F 41% 29.72 in 10.0 mi South 4.6 mph - N/A   Mostly Cloudy
9:53 PM 61.0 °F - 33.1 °F 35% 29.70 in 10.0 mi SSE 8.1 mph - N/A   Scattered Clouds
10:53 PM 57.9 °F - 36.0 °F 44% 29.69 in 10.0 mi South 3.5 mph - N/A   Mostly Cloudy
11:53 PM 55.0 °F - 39.0 °F 55% 29.66 in 10.0 mi NNE 5.8 mph - N/A   Overcast